Location: ?????????
(54.7630°N, 39.4991°E)
Time: 07:51:25
(UTC+00:00)

CZ-4 R/B - Pass Details

Date: 14 April 2026
Orbit: 490 x 537 km, 97.5° (Epoch: 9 May)

Event Time Altitude Azimuth Distance (km) Brightness Sun altitude
Rises 18:15:21 0° 206° (SSW) 2,644 4.6 -14.7°
Reaches altitude 10° 18:18:02 10° 227° (SW) 1,752 3.9 -15.0°
Maximum altitude 18:20:35 17° 270° (W) 1,351 3.9 -15.2°
Drops below altitude 10° 18:23:08 10° 313° (NW) 1,743 5.3 -15.5°
Sets 18:25:48 0° 334° (NNW) 2,625 6.2 -15.8°
